Location: Ferchesar
(52.6477°N, 12.4298°E)
Time: 10:04:43
(UTC+01:00)

Vanguard 3 - Pass Details

Date: 08 December 2021
Orbit: 508 x 3260 km, 33.3° (Epoch: 25 January)

Event Time Altitude Azimuth Distance (km) Brightness Sun altitude
Exits shadow 00:43:01 15° 118° (ESE) 5,746 11.3 -59.1°
Drops below altitude 10° 00:48:03 10° 104° (ESE) 6,172 11.6 -58.8°
Sets 00:55:10 0° 88° (E) 7,014 12.1 -58.4°
